Saginaw Browne, MI

10:55 AM EST on January 16, 2018 (GMT -0500)
Saginaw County-Browne

Weather History for KHYX - June, 2013

Change the Weather History Date:

Wednesday, June 12, 2013

  Actual Average (KMBS) Record (KMBS)
Temperature  
Mean Temperature 69 °F -  
Max Temperature 78 °F 74 °F 92 °F (2017)
Min Temperature 60 °F 54 °F 45 °F (2006)
Cooling Degree Days 4    
Growing Degree Days 19 (Base 50)    
Moisture  
Dew Point 64 °F    
Average Humidity 89    
Maximum Humidity 100    
Minimum Humidity 57    
Precipitation  
Precipitation 0.00 in - - ()
Sea Level Pressure  
Sea Level Pressure 29.84 in    
Wind  
Wind Speed 3 mph (SSW)    
Max Wind Speed 17 mph    
Max Gust Speed 18 mph    
Visibility 5 miles    
Events Fog , Rain    
Averages and records for this station are not official NWS values.
T = Trace of Precipitation, MM = Missing Value Source: NWS Daily Summary

Daily Weather History Graph

Daily Weather History Graph

Search for Another Location

Airport or City:

Trip Planner

Search our weather history database for the weather conditions in past years. The results will help you decide how hot, cold, wet, or windy it might be!

Date:

Astronomy

Jun. 12, 2013 Rise Set
Actual Time 5:54 AM EDT 9:16 PM EDT
Civil Twilight 5:18 AM EDT 9:52 PM EDT
Nautical Twilight 4:32 AM EDT 10:38 PM EDT
Astronomical Twilight 3:34 AM EDT 11:36 PM EDT
Moon 9:37 AM EDT (6/12) 11:45 PM EDT (6/12)
Length of Visible Light 16h 33m
Length of Day
15h 22m
Waxing Crescent, 14% of the Moon is Illuminated
Jun 12
Waxing Crescent
Jun 16
First Quarter
Jun 23
Full
Jun 30
Last Quarter
Jul 8
New

Hourly Weather History & Observations

Time (EDT) Temp. Dew Point Humidity Pressure Visibility Wind Dir Wind Speed Gust Speed Precip Events Conditions
12:13 AM 68.0 °F 62.6 °F 83% 29.86 in 10.0 mi West 6.9 mph - N/A   Clear
12:33 AM 68.0 °F 60.8 °F 78% 29.86 in 10.0 mi West 5.8 mph - N/A   Clear
12:53 AM 66.2 °F 60.8 °F 83% 29.86 in 10.0 mi NW 4.6 mph - N/A   Clear
1:13 AM 64.4 °F 60.8 °F 88% 29.86 in 10.0 mi Calm Calm - N/A   Clear
1:33 AM 64.4 °F 62.6 °F 94% 29.86 in 10.0 mi Calm Calm - N/A   Clear
1:53 AM 62.6 °F 62.6 °F 100% 29.86 in 7.0 mi Calm Calm - N/A   Clear
2:13 AM 62.6 °F 62.6 °F 100% 29.86 in 1.5 mi Calm Calm - N/A   Mist
2:33 AM 62.6 °F 62.6 °F 100% 29.86 in 0.8 mi Calm Calm - N/A   Mostly Cloudy
2:54 AM 60.8 °F 60.8 °F 100% 29.85 in 0.2 mi Calm Calm - N/A Fog Fog
3:14 AM 62.6 °F 62.6 °F 100% 29.85 in 0.2 mi Calm Calm - N/A Fog Fog
3:34 AM 62.6 °F 62.6 °F 100% 29.86 in 0.2 mi Calm Calm - N/A   Light Drizzle
3:54 AM 62.6 °F 62.6 °F 100% 29.85 in 0.2 mi North 3.5 mph - N/A   Light Drizzle
4:14 AM 62.6 °F 62.6 °F 100% 29.86 in 0.2 mi Calm Calm - N/A Fog Fog
4:34 AM 62.6 °F 62.6 °F 100% 29.88 in 0.2 mi WNW 3.5 mph - N/A Fog Fog
4:54 AM 62.6 °F 62.6 °F 100% 29.88 in 0.2 mi Calm Calm - N/A Fog Fog
5:14 AM 62.6 °F 62.6 °F 100% 29.89 in 0.2 mi Calm Calm - N/A Fog Fog
5:34 AM 62.6 °F 62.6 °F 100% 29.89 in 0.2 mi Calm Calm - N/A Fog Fog
5:54 AM 62.6 °F 62.6 °F 100% 29.89 in 0.2 mi Calm Calm - N/A Fog Fog
6:14 AM 62.6 °F 62.6 °F 100% 29.89 in 0.2 mi Calm Calm - N/A Fog Fog
6:35 AM 62.6 °F 62.6 °F 100% 29.89 in 0.2 mi Calm Calm - N/A Fog Fog
6:55 AM 62.6 °F 62.6 °F 100% 29.89 in 0.2 mi Calm Calm - N/A Fog Fog
7:15 AM 62.6 °F 62.6 °F 100% 29.89 in 0.2 mi Calm Calm - N/A Fog Fog
7:35 AM 62.6 °F 62.6 °F 100% 29.89 in 0.2 mi Calm Calm - N/A Fog Fog
7:55 AM 62.6 °F 62.6 °F 100% 29.91 in 0.2 mi Calm Calm - N/A Fog Fog
8:10 AM 62.6 °F 62.6 °F 100% 29.90 in 0.2 mi Calm Calm - N/A Fog Fog
8:30 AM 62.6 °F 62.6 °F 100% 29.90 in 0.2 mi Calm Calm - N/A Fog Fog
8:51 AM 62.6 °F 62.6 °F 100% 29.90 in 0.2 mi Calm Calm - N/A Fog Fog
9:11 AM 62.6 °F 62.6 °F 100% 29.90 in 0.8 mi Calm Calm - N/A   Overcast
9:31 AM 62.6 °F 62.6 °F 100% 29.90 in 0.5 mi Calm Calm - N/A Fog Fog
9:51 AM 64.4 °F 64.4 °F 100% 29.90 in 2.0 mi Calm Calm - N/A   Overcast
10:11 AM 64.4 °F 64.4 °F 100% 29.90 in 1.8 mi Calm Calm - N/A   Overcast
10:31 AM 64.4 °F 64.4 °F 100% 29.91 in 1.5 mi Calm Calm - N/A   Overcast
10:51 AM 64.4 °F 64.4 °F 100% 29.92 in 1.8 mi Calm Calm - N/A   Overcast
11:11 AM 66.2 °F 66.2 °F 100% 29.91 in 1.8 mi Calm Calm - N/A   Overcast
11:31 AM 66.2 °F 66.2 °F 100% 29.91 in 2.0 mi Calm Calm - N/A   Overcast
11:51 AM 68.0 °F 68.0 °F 100% 29.88 in 2.5 mi Calm Calm - N/A   Scattered Clouds
12:12 PM 68.0 °F 68.0 °F 100% 29.86 in 5.0 mi Calm Calm - N/A   Clear
12:32 PM 69.8 °F 69.8 °F 100% 29.85 in 5.0 mi East 4.6 mph - N/A   Clear
12:52 PM 71.6 °F 69.8 °F 94% 29.81 in 5.0 mi East 8.1 mph - N/A   Clear
1:12 PM 71.6 °F 69.8 °F 94% 29.84 in 7.0 mi Calm Calm - N/A   Clear
1:32 PM 71.6 °F 69.8 °F 94% 29.84 in 7.0 mi Calm Calm - N/A   Clear
1:52 PM 73.4 °F 69.8 °F 88% 29.87 in 7.0 mi WSW 3.5 mph - N/A   Clear
2:12 PM 73.4 °F 69.8 °F 88% 29.87 in 10.0 mi West 10.4 mph - N/A   Mostly Cloudy
2:32 PM 78.8 °F 64.4 °F 61% 29.84 in 10.0 mi SW 4.6 mph - N/A   Scattered Clouds
2:52 PM 77.0 °F 62.6 °F 61% 29.84 in 10.0 mi SSW 5.8 mph - N/A   Mostly Cloudy
3:12 PM 77.0 °F 62.6 °F 61% 29.81 in 10.0 mi Calm Calm - N/A   Mostly Cloudy
3:32 PM 78.8 °F 62.6 °F 57% 29.82 in 10.0 mi Calm Calm - N/A   Mostly Cloudy
3:52 PM 77.0 °F 62.6 °F 61% 29.83 in 10.0 mi SSW 8.1 mph - N/A   Mostly Cloudy
4:13 PM 77.0 °F 62.6 °F 61% 29.83 in 10.0 mi SSW 6.9 mph - N/A   Mostly Cloudy
4:33 PM 77.0 °F 64.4 °F 65% 29.82 in 10.0 mi South 6.9 mph - N/A   Mostly Cloudy
4:53 PM 77.0 °F 64.4 °F 65% 29.82 in 10.0 mi SW 9.2 mph - N/A   Mostly Cloudy
5:13 PM 77.0 °F 62.6 °F 61% 29.83 in 10.0 mi SW 5.8 mph - N/A   Scattered Clouds
5:33 PM 77.0 °F 62.6 °F 61% 29.83 in 10.0 mi SSW 6.9 mph - N/A   Clear
5:53 PM 77.0 °F 62.6 °F 61% 29.81 in 10.0 mi SW 5.8 mph - N/A   Clear
6:13 PM 77.0 °F 60.8 °F 57% 29.80 in 10.0 mi SSW 4.6 mph - N/A   Scattered Clouds
6:34 PM 75.2 °F 62.6 °F 65% 29.79 in 10.0 mi SSW 3.5 mph - N/A   Mostly Cloudy
6:54 PM 73.4 °F 62.6 °F 69% 29.79 in 10.0 mi SSW 6.9 mph - N/A   Overcast
7:14 PM 73.4 °F 64.4 °F 73% 29.79 in 10.0 mi SSW 4.6 mph - N/A   Overcast
7:34 PM 73.4 °F 64.4 °F 73% 29.79 in 10.0 mi Calm Calm - N/A   Overcast
7:54 PM 73.4 °F 64.4 °F 73% 29.78 in 10.0 mi Calm Calm - N/A Rain Light Rain
8:14 PM 71.6 °F 66.2 °F 83% 29.79 in 10.0 mi Calm Calm - N/A   Overcast
8:34 PM 71.6 °F 66.2 °F 83% 29.79 in 10.0 mi Calm Calm - N/A Rain Rain
8:54 PM 69.8 °F 68.0 °F 94% 29.77 in 7.0 mi North 4.6 mph - N/A Rain Light Rain
9:14 PM 69.8 °F 69.8 °F 100% 29.75 in 5.0 mi NE 5.8 mph - N/A   Mostly Cloudy
9:35 PM 68.0 °F 68.0 °F 100% 29.75 in 5.0 mi NE 11.5 mph - N/A Rain Light Rain
9:55 PM 68.0 °F 68.0 °F 100% 29.75 in 5.0 mi East 9.2 mph - N/A Rain Light Rain
10:15 PM 68.0 °F 68.0 °F 100% 29.71 in 5.0 mi ENE 17.3 mph - N/A   Light Drizzle
10:35 PM 68.0 °F 66.2 °F 94% 29.73 in 5.0 mi NE 13.8 mph - N/A Rain Light Rain
10:55 PM 66.2 °F 66.2 °F 100% 29.71 in 5.0 mi East 12.7 mph 18.4 mph N/A Rain Light Rain
11:15 PM 66.2 °F 66.2 °F 100% 29.71 in 5.0 mi ENE 9.2 mph - N/A Rain Light Rain
11:30 PM 66.2 °F 66.2 °F 100% 29.69 in 5.0 mi East 11.5 mph 16.1 mph N/A   Light Drizzle
11:50 PM 64.4 °F 64.4 °F 100% 29.70 in 5.0 mi East 10.4 mph - N/A Rain Light Rain